Home > Weather > Leverkusen > Past weeks

Flag for Germany Past Weather in Leverkusen, North Rhine-Westphalia, Germany — Yesterday and Last 2 Weeks

Now
64 °F

Fog.


Feels Like: 64 °F
Forecast: 60 / 79 °F
Wind: 1 mph from North

Location: Koeln / Bonn

Current Time: Jul 24, 2016 at 1:09:38 AM

Latest Report: Jul 24, 2016 at 12:20 AM


Visibility: N/A

Pressure: 30.09 "Hg

Humidity: 100%

Dew Point: 64 °F

Location of LeverkusenLocation

Past Weather in Leverkusen — Graph

°F

Leverkusen Temperature Yesterday

Maximum temperature yesterday: 73 °F (at 5:20 PM)
Minimum temperature yesterday: 64 °F (at 2:20 AM)
Average temperature yesterday: 69 °F

High & Low Weather Summary for the Past Weeks

 TemperatureHumidityPressure
High93 °F (Jul 20, 3:20 PM)100% (Jul 13, 4:20 AM)30.30 "Hg (Jul 13, 4:20 AM)
Low48 °F (Jul 14, 4:20 AM)32% (Jul 20, 3:20 PM)29.77 "Hg (Jul 10, 7:50 PM)
Average69 °F71%30.05 "Hg
* Reported Jul 9 12:20 AM — Jul 24 12:20 AM, Leverkusen, Weather by CustomWeather, © 2016

Note: Actual official high and low records may vary slightly from our data, if they occured in-between our weather recording intervals... More about our weather records

Advertising

Leverkusen Weather History for the Previous 24 Hours

Scroll right to see more
 ConditionsComfort  
Time TempWeatherWind HumidityBarometerVisibility
12:20 AM
Sun, Jul 24
64 °FFog.1 mph100%30.09 "HgN/A
11:50 PM
Sat, Jul 23
66 °FFog.1 mph94%30.09 "HgN/A
11:20 PM64 °FFog.1 mph100%30.09 "HgN/A
10:50 PM66 °FFog.1 mph100%30.09 "HgN/A
10:20 PM68 °FFog.3 mph94%30.09 "HgN/A
9:50 PM68 °FScattered showers. Fog.6 mph94%30.07 "Hg6 mi
9:20 PM70 °FRain. Fog.3 mph100%30.07 "Hg4 mi
8:50 PM72 °FFog.2 mph94%30.07 "HgN/A
8:20 PM72 °FScattered showers. Broken clouds.2 mph94%30.07 "HgN/A
7:50 PM72 °FScattered showers. Broken clouds.3 mph94%30.07 "HgN/A
7:20 PM73 °FSprinkles. Broken clouds.2 mph83%30.07 "HgN/A
6:50 PM73 °FSprinkles. Broken clouds.2 mph83%30.07 "HgN/A
6:20 PM73 °FSprinkles. Broken clouds.2 mph83%30.07 "HgN/A
5:50 PM72 °FRain showers. Broken clouds.5 mph88%30.07 "HgN/A
5:20 PM73 °FSprinkles. Partly sunny.5 mph83%30.07 "HgN/A
4:50 PM72 °FRain showers. Partly sunny.5 mph88%30.07 "HgN/A
4:20 PM72 °FLight rain. Fog.5 mph88%30.07 "Hg5 mi
3:50 PM70 °FLight rain. Fog.5 mph94%30.07 "Hg5 mi
3:20 PM70 °FRain showers. Broken clouds.3 mph94%30.07 "Hg5 mi
2:50 PM70 °FRain showers. Partly sunny.5 mph94%30.07 "Hg5 mi
2:20 PM70 °FRain showers. Broken clouds.3 mph94%30.07 "Hg6 mi
1:50 PM72 °FRain showers. Broken clouds.2 mph88%30.07 "Hg6 mi
1:20 PM72 °FLight rain. Broken clouds.1 mph88%30.07 "Hg6 mi
12:50 PM72 °FLight rain. Broken clouds.1 mph88%30.07 "Hg6 mi
12:20 PM72 °FLight rain. Broken clouds.3 mph83%30.07 "Hg6 mi
11:50 AM72 °FLight rain. Broken clouds.2 mph83%30.07 "Hg6 mi
11:20 AM70 °FLight rain. Broken clouds.2 mph94%30.07 "Hg6 mi
10:50 AM70 °FBroken clouds.2 mph88%30.07 "Hg6 mi
10:20 AM70 °FBroken clouds.1 mph88%30.04 "Hg6 mi
9:50 AM70 °FBroken clouds.2 mph88%30.04 "Hg6 mi
9:20 AM70 °FLight rain. Broken clouds.2 mph88%30.04 "Hg6 mi
8:50 AM68 °FLight rain. Broken clouds.3 mph94%30.04 "Hg6 mi
8:20 AM66 °FLight rain. Broken clouds.2 mph100%30.04 "HgN/A
7:50 AM66 °FLight rain. Broken clouds.5 mph94%30.04 "HgN/A
7:20 AM66 °FLight rain. Partly sunny.3 mph94%30.04 "HgN/A
6:50 AM66 °FBroken clouds.3 mph94%30.04 "HgN/A
6:20 AM66 °FPassing clouds.2 mph88%30.01 "HgN/A
5:50 AM66 °FLight rain. Passing clouds.3 mph88%30.01 "HgN/A
5:20 AM64 °FLight rain. Clear.2 mph94%30.01 "HgN/A
4:50 AM64 °FClear.2 mph94%30.01 "Hg10 mi
4:20 AM66 °FPassing clouds.3 mph88%30.04 "HgN/A
3:50 AM66 °FClear.6 mph88%30.01 "Hg10 mi
3:20 AM64 °FClear.3 mph94%30.01 "Hg10 mi
2:50 AM66 °FPassing clouds.3 mph88%30.01 "HgN/A
2:20 AM64 °FClear.5 mph94%30.04 "Hg10 mi
1:50 AM68 °FClear.3 mph83%30.01 "Hg10 mi
1:20 AM68 °FClear.8 mph83%30.01 "Hg10 mi
Weather by CustomWeather, © 2016

See weather overviewHow to use our weather pages